Terminal Aerodrome Forecast
Issued by NWS

Home | Current Version | Previous Version | Text Only | Print | Product List | Glossary On
Versions: 1 2 3 4 5 6 7 8 9 10 11 12 13 14
000
FTUS42 KTBW 021700
TAFPGD
TAF
KPGD 021724Z 0218/0318 12006KT P6SM VCTS SCT045CB BKN150
     FM030000 09004KT P6SM FEW050 SCT250
     FM030900 05004KT P6SM SCT250
     FM031400 09006KT P6SM SCT030 SCT100=

USA.gov is the U.S. government's official web portal to all federal, state and local government web resources and services.